Flag for Austria Weather past 2 weeks in Krems, Lower Austria, Austria

Now
59 °F

Light rain. Broken clouds.


Feels Like: 57 °F
Forecast: 48 / 62 °F
Wind: 9 mph from Northwest

Location: Tulln Airport

Current Time: May 26, 2015 at 3:59:00 PM

Latest Report: May 26, 2015 at 2:50 PM


Visibility: 6 mi

Pressure: 29.89 "Hg

Humidity: 88%

Dew point: 55 °F

Location of KremsLocation

Historic Weather in Krems — Graph

°F

Krems temperature yesterday

Maximum temperature yesterday: 68 °F (at 12:50 PM)
Minimum temperature yesterday: 52 °F (at 5:50 AM)
Average temperature yesterday: 62 °F

Past Weeks' High & Low Weather Summary

 TemperatureHumidityPressure
High79 °F (May 12, 2:50 PM)100% (May 14, 6:50 AM)30.33 "Hg (May 14, 6:50 AM)
Low41 °F (May 12, 5:50 AM)26% (May 12, 2:50 PM)29.71 "Hg (May 19, 4:50 AM)
Average60 °F75%30.01 "Hg
* Reported May 11 2:50 PM — May 26 2:50 PM, Krems, Weather by CustomWeather, © 2015

Note: Actual official high and low records may vary slightly from our data, if they occured in-between our weather recording intervals... More about our weather records

Advertising

Krems weather history for previous 24 hours

 ConditionsComfort  
Time TempWeatherWind HumidityBarometerVisibility
2:50 PM
Tue, May 26
59 °FLight rain. Broken clouds.9 mph88%29.89 "Hg6 mi
1:50 PM57 °FLight rain. Partly sunny.8 mph100%29.89 "Hg4 mi
12:50 PM57 °FLight rain. Partly sunny.6 mph100%29.89 "Hg5 mi
11:50 AM57 °FLight rain. Partly sunny.10 mph100%29.86 "Hg5 mi
10:50 AM57 °FLight rain. Partly sunny.10 mph94%29.86 "Hg6 mi
9:50 AM57 °FLight rain. Broken clouds.10 mph94%29.86 "Hg7 mi
8:50 AM55 °FSprinkles. Broken clouds.12 mph100%29.83 "Hg7 mi
7:50 AM55 °FSprinkles. Partly sunny.12 mph94%29.83 "Hg9 mi
6:50 AM55 °FSprinkles. Partly sunny.7 mph94%29.83 "Hg9 mi
5:50 AM55 °FSprinkles. Partly cloudy.9 mph94%29.83 "Hg9 mi
10:50 PM
Mon, May 25
57 °FPartly cloudy.2 mph94%29.83 "Hg9 mi
9:50 PM59 °FSprinkles. Passing clouds.3 mph88%29.83 "Hg9 mi
8:50 PM61 °FBroken clouds.6 mph83%29.80 "Hg9 mi
6:50 PM63 °FPartly sunny.3 mph77%29.83 "Hg9 mi
5:50 PM64 °FPartly sunny.7 mph78%29.83 "Hg9 mi
4:50 PM66 °FPartly sunny.10 mph68%29.83 "Hg9 mi
3:50 PM66 °FBroken clouds.10 mph68%29.86 "Hg9 mi
Weather by CustomWeather, © 2015

See weather overviewHow to use our weather pages